Orbital Elements at Epoch 2459200.5 (2020-Dec-17.0) TDB
Reference: JPL 24 (heliocentric ecliptic J2000)
Element | Value | Uncertainty (1-sigma) | Units |
e | .05439810114993353 | 3.8416e-08 | |
a | 2.847118504728522 | 1.9667e-08 | au |
q | 2.692240664322452 | 1.0812e-07 | au |
i | .6940196888172336 | 4.6877e-06 | deg |
node | 323.6997497860585 | 0.00035245 | deg |
peri | 98.06165971810933 | 0.00035528 | deg |
M | 142.5867332474277 | 4.4252e-05 | deg |
tp | 2458505.502309672762 (2019-Jan-22.00230967) | 0.00021544 | TDB |
period | 1754.715623392818 4.80 | 1.8181e-05 4.978e-08 | d yr |
n | .2051614490694079 | 2.1257e-09 | deg/d |
Q | 3.001996345134591 | 2.0736e-08 | au |
|
| | Orbit Determination Parameters
Additional Information
|